Flag for U.S.A. Weather past 2 weeks in Norfolk, Virginia, U.S.A.

Now
76 °F

Scattered clouds.


Feels Like: 78 °F
Forecast: 59 / 77 °F
Wind: 12 mph from Northeast

Location: Norfolk Naval Air Station

Current Time: Apr 18, 2015 at 4:01:09 PM

Latest Report: Apr 18, 2015 at 2:59 PM


Visibility: 10 mi

Pressure: 29.98 "Hg

Humidity: 60%

Dew point: 61 °F

Location of NorfolkLocation

Historic Weather in Norfolk — Graph

°F

Norfolk temperature yesterday

Maximum temperature yesterday: 80 °F (at 3:59 PM)
Minimum temperature yesterday: 61 °F (at 4:59 AM)
Average temperature yesterday: 70 °F

Past Weeks' High & Low Weather Summary

 TemperatureHumidityPressure
High87 °F (Apr 10, 2:59 PM)90% (Apr 9, 9:59 AM)30.41 "Hg (Apr 9, 9:59 AM)
Low41 °F (Apr 5, 5:59 AM)20% (Apr 4, 5:59 PM)29.71 "Hg (Apr 4, 4:59 AM)
Average64 °F60%30.17 "Hg
* Reported Apr 3 2:59 PM — Apr 18 2:59 PM, Norfolk, Weather by CustomWeather, © 2015

Note: Actual official high and low records may vary slightly from our data, if they occured in-between our weather recording intervals... More about our weather records

Advertising

Norfolk weather history for previous 24 hours

 ConditionsComfort  
Time TempWeatherWind HumidityBarometerVisibility
2:59 PM
Sat, Apr 18
76 °FScattered clouds.12 mph60%29.98 "Hg10 mi
1:59 PM73 °FScattered clouds.10 mph59%30.00 "Hg10 mi
12:59 PM72 °FScattered clouds.13 mph68%30.01 "Hg10 mi
11:59 AM71 °FBroken clouds.13 mph68%30.03 "Hg10 mi
10:59 AM72 °FBroken clouds.10 mph66%30.03 "Hg10 mi
9:59 AM69 °FPartly sunny.12 mph70%30.01 "Hg10 mi
8:59 AM72 °FBroken clouds.8 mph71%30.00 "Hg10 mi
7:59 AM69 °FCloudy.5 mph81%30.01 "Hg8 mi
6:59 AM67 °FFog.No wind85%30.00 "Hg6 mi
5:59 AM67 °FPartly cloudy.5 mph85%29.98 "Hg7 mi
4:59 AM66 °FPassing clouds.5 mph84%29.96 "Hg8 mi
3:59 AM68 °FPassing clouds.7 mph78%29.96 "Hg10 mi
2:59 AM68 °FPassing clouds.5 mph82%29.97 "Hg10 mi
1:59 AM69 °FOvercast.6 mph79%29.98 "Hg10 mi
12:59 AM69 °FOvercast.7 mph76%30.00 "Hg10 mi
11:59 PM
Fri, Apr 17
71 °FOvercast.6 mph71%30.00 "Hg10 mi
10:59 PM72 °FOvercast.3 mph68%30.00 "Hg10 mi
9:59 PM72 °FPassing clouds.5 mph68%30.00 "Hg10 mi
8:59 PM72 °FPassing clouds.No wind68%29.99 "Hg10 mi
7:59 PM75 °FBroken clouds.No wind60%29.98 "Hg10 mi
6:59 PM78 °FBroken clouds.5 mph56%29.98 "Hg10 mi
5:59 PM76 °FBroken clouds.5 mph60%29.99 "Hg10 mi
4:59 PM79 °FPartly sunny.7 mph52%29.99 "Hg10 mi
Weather by CustomWeather, © 2015

See weather overviewHow to use our weather pages